Aspen, CO

2:49 PM MDT on August 21, 2017 (GMT -0600)
Aspen-Pitkin County / Sardy Field

Weather History for KASE - October, 2012

Change the Weather History Date:

Tuesday, October 16, 2012

  Actual Average Record
Temperature  
Mean Temperature 47 °F 42 °F  
Max Temperature 65 °F 57 °F 73 °F (2015)
Min Temperature 28 °F 28 °F 16 °F (1999)
Degree Days  
Heating Degree Days 18 23  
Month to date heating degree days 289 321  
Since 1 July heating degree days 638 868  
Cooling Degree Days 0 0  
Month to date cooling degree days 0 0  
Year to date cooling degree days 106 39  
Moisture  
Dew Point 28 °F    
Average Humidity 55    
Maximum Humidity 85    
Minimum Humidity 24    
Precipitation  
Precipitation 0.05 in 0.05 in 0.80 in (1981)
Month to date precipitation 0.53 0.80  
Year to date precipitation 11.09 14.08  
Sea Level Pressure  
Sea Level Pressure 29.79 in    
Wind  
Wind Speed 7 mph (WNW)    
Max Wind Speed 26 mph    
Max Gust Speed 35 mph    
Visibility 10 miles    
Events Rain    
T = Trace of Precipitation, MM = Missing Value Source: NWS Daily Summary

Daily Weather History Graph

Daily Weather History Graph

Search for Another Location

Airport or City:

Trip Planner

Search our weather history database for the weather conditions in past years. The results will help you decide how hot, cold, wet, or windy it might be!

Date:

Astronomy

Oct. 16, 2012 Rise Set
Actual Time 7:18 AM MDT 6:26 PM MDT
Civil Twilight 6:51 AM MDT 6:53 PM MDT
Nautical Twilight 6:20 AM MDT 7:24 PM MDT
Astronomical Twilight 5:49 AM MDT 7:55 PM MDT
Moon 8:44 AM MDT (10/16) 7:14 PM MDT (10/16)
Length of Visible Light 12h 01m
Length of Day
11h 07m
New Moon, 2% of the Moon is Illuminated
Oct 16
New Moon
Oct 21
First Quarter
Oct 29
Full
Nov 6
Last Quarter
Nov 13
New

Hourly Weather History & Observations

Time (MDT) Temp. Windchill Dew Point Humidity Pressure Visibility Wind Dir Wind Speed Gust Speed Precip Events Conditions
12:53 AM 35.1 °F - 27.0 °F 72% 29.97 in 10.0 mi Calm Calm - N/A   Clear
1:53 AM 33.1 °F 28.7 °F 27.0 °F 78% 29.99 in 10.0 mi South 4.6 mph - N/A   Clear
2:53 AM 34.0 °F 28.8 °F 26.1 °F 73% 29.97 in 10.0 mi South 5.8 mph - N/A   Clear
3:53 AM 32.0 °F 28.7 °F 26.1 °F 79% 29.96 in 10.0 mi South 3.5 mph - N/A   Clear
4:53 AM 32.0 °F 27.5 °F 26.1 °F 79% 29.95 in 10.0 mi SSW 4.6 mph - N/A   Clear
6:53 AM 30.0 °F 25.2 °F 24.1 °F 79% 30.01 in 10.0 mi SSW 4.6 mph - N/A   Clear
7:53 AM 30.9 °F 25.2 °F 26.1 °F 82% 30.01 in 10.0 mi South 5.8 mph - N/A   Clear
8:53 AM 42.1 °F 38.4 °F 28.9 °F 60% 29.97 in 10.0 mi South 5.8 mph - N/A   Clear
9:53 AM 46.9 °F - 30.0 °F 52% 29.93 in 10.0 mi Calm Calm - N/A   Clear
10:53 AM 53.1 °F - 30.9 °F 43% 29.89 in 10.0 mi NW 3.5 mph - N/A   Clear
11:53 AM 55.9 °F - 28.0 °F 34% 29.85 in 10.0 mi NW 5.8 mph - N/A   Clear
12:53 PM 60.1 °F - 27.0 °F 28% 29.77 in 10.0 mi NE 5.8 mph - N/A   Clear
1:53 PM 61.0 °F - 27.0 °F 27% 29.73 in 10.0 mi North 11.5 mph 17.3 mph N/A   Clear
2:53 PM 64.0 °F - 27.0 °F 25% 29.65 in 10.0 mi NNW 8.1 mph 19.6 mph N/A   Clear
3:53 PM 64.0 °F - 28.0 °F 26% 29.64 in 10.0 mi North 15.0 mph 24.2 mph N/A   Partly Cloudy
4:53 PM 63.0 °F - 27.0 °F 26% 29.62 in 10.0 mi Variable 6.9 mph - N/A   Clear
5:53 PM 60.1 °F - 28.0 °F 30% 29.65 in 10.0 mi West 8.1 mph - N/A   Mostly Cloudy
6:53 PM 59.0 °F - 28.0 °F 31% 29.64 in 10.0 mi Calm Calm - N/A   Overcast
7:53 PM 59.0 °F - 28.0 °F 31% 29.64 in 10.0 mi West 9.2 mph 21.9 mph N/A   Scattered Clouds
8:53 PM 59.0 °F - 28.0 °F 31% 29.58 in 10.0 mi NNW 5.8 mph 19.6 mph N/A   Partly Cloudy
9:53 PM 57.9 °F - 28.9 °F 33% 29.52 in 10.0 mi Variable 3.5 mph - N/A   Overcast
10:53 PM 46.9 °F - 37.0 °F 68% 29.66 in 10.0 mi NNW 17.3 mph 32.2 mph 0.01 in   Overcast
11:53 PM 45.0 °F 39.7 °F 39.0 °F 80% 29.66 in 10.0 mi NNW 10.4 mph 19.6 mph 0.01 in Rain Light Rain